CW2550 Weather Reports


Display with metric or nautical units.
time (UTC)temp
F
wind
direction
speed
MPH
gust
MPH
rain 1hr
in
rain 24hr
in
rain mn
in
humidity
%
barometer
mb
20260903154550 78 171 4.0 8.0 0.00 0.22 0.22 78 1010.1
20260903153044 76 148 2.0 6.0 0.00 0.22 0.22 80 1009.8
20260903151558 75 0 0.0 3.0 0.00 0.22 0.22 83 1010.0
20260903150054 74 0 1.0 7.0 0.00 0.22 0.22 84 1010.0
20260903144551 73 110 2.0 6.0 0.00 0.22 0.22 84 1009.9
20260903143046 73 181 2.0 7.0 0.00 0.22 0.22 85 1010.0
20260903141544 72 177 2.0 6.0 0.00 0.22 0.22 85 1009.9
20260903140105 71 184 3.0 6.0 0.00 0.22 0.22 86 1009.4
20260903134550 70 180 2.0 7.0 0.00 0.22 0.22 88 1009.4
20260903133104 69 170 4.0 9.0 0.00 0.22 0.22 90 1009.5
20260903131605 69 198 3.0 11.0 0.03 0.22 0.22 90 1009.8
20260903130052 69 198 6.0 13.0 0.04 0.22 0.22 91 1009.6
20260903124543 68 149 6.0 14.0 0.08 0.22 0.22 91 1009.7
20260903123054 69 197 5.0 13.0 0.08 0.22 0.22 91 1010.1
20260903121550 69 166 7.0 13.0 0.15 0.19 0.19 92 1010.2
20260903120055 69 146 3.0 7.0 0.18 0.18 0.18 91 1010.1
20260903114552 70 221 0.0 8.0 0.14 0.14 0.14 90 1010.9
20260903113057 70 197 6.0 23.0 0.14 0.14 0.14 89 1010.4
20260903111550 72 205 11.0 19.0 0.03 0.03 0.03 87 1010.5
20260903110049 72 150 4.0 11.0 0.00 0.00 0.00 87 1009.9
20260903104548 72 190 5.0 10.0 0.00 0.00 0.00 88 1010.0
20260903103052 72 184 6.0 16.0 0.00 0.00 0.00 89 1010.4
20260903101557 72 211 5.0 11.0 0.00 0.00 0.00 90 1010.4
20260903100055 72 219 8.0 18.0 0.00 0.00 0.00 91 1010.2
20260903094637 71 201 3.0 6.0 0.00 0.00 0.00 90 1010.3
20260903093054 71 175 3.0 6.0 0.00 0.00 0.00 89 1010.1
20260903091606 71 151 1.0 4.0 0.00 0.00 0.00 89 1009.9
20260903090057 72 120 1.0 5.0 0.00 0.00 0.00 88 1009.5
20260903084551 72 173 1.0 7.0 0.00 0.01 0.00 88 1009.9
20260903083048 72 0 0.0 4.0 0.00 0.01 0.00 88 1009.5
20260903081548 72 0 0.0 2.0 0.00 0.01 0.00 88 1009.6
20260903080056 72 0 0.0 3.0 0.00 0.01 0.00 89 1009.8
20260903074547 71 0 0.0 4.0 0.00 0.10 0.00 90 1009.8
20260903073058 71 0 0.0 2.0 0.00 0.10 0.00 89 1009.9
20260903071554 71 0 0.0 1.0 0.00 0.10 0.00 88 1009.9
20260903070053 71 0 0.0 0.0 0.00 0.10 0.00 87 1010.1
20260903064554 72 0 0.0 6.0 0.00 0.22 0.00 86 1010.0
20260903063058 73 0 0.0 1.0 0.00 0.22 0.00 87 1010.0
20260903061554 73 0 0.0 2.0 0.00 0.22 0.00 87 1010.1
20260903060056 73 0 0.0 2.0 0.00 0.22 0.00 88 1010.1
20260903054549 72 0 0.0 0.0 0.00 0.26 0.00 88 1010.2
20260903053102 72 0 0.0 0.0 0.00 0.26 0.00 87 1010.1
20260903051554 72 0 0.0 0.0 0.00 0.26 0.00 87 1010.1
20260903050049 73 0 0.0 0.0 0.00 0.26 0.00 87 1010.2
20260903044600 73 0 0.0 0.0 0.00 0.26 0.26 86 1010.2
20260903043053 74 0 0.0 0.0 0.00 0.26 0.26 85 1010.3
20260903041607 74 0 0.0 0.0 0.00 0.26 0.26 85 1010.4
20260903040057 74 0 0.0 0.0 0.00 0.26 0.26 85 1010.3
20260903034553 75 0 0.0 0.0 0.00 0.26 0.26 84 1010.4
20260903033052 75 0 0.0 0.0 0.00 0.26 0.26 83 1010.6
20260903031548 76 0 0.0 0.0 0.00 0.26 0.26 83 1010.6
20260903030049 76 0 0.0 0.0 0.00 0.26 0.26 82 1010.7
20260903024555 77 0 0.0 0.0 0.00 0.26 0.26 82 1010.6
20260903023055 77 0 0.0 0.0 0.00 0.26 0.26 82 1010.7
20260903021552 77 0 0.0 0.0 0.00 0.26 0.26 80 1010.6
20260903020059 78 0 0.0 0.0 0.00 0.26 0.26 79 1010.4
20260903014556 78 0 0.0 0.0 0.00 0.26 0.26 77 1010.6
20260903013049 79 0 0.0 0.0 0.00 0.26 0.26 76 1010.3
20260903011550 80 0 0.0 0.0 0.00 0.26 0.26 74 1010.0
20260903010056 81 0 0.0 0.0 0.00 0.26 0.26 74 1009.8
20260903004557 83 0 0.0 0.0 0.00 0.26 0.26 73 1009.9
20260903003052 84 0 0.0 0.0 0.00 0.26 0.26 71 1009.8
20260903001606 84 0 0.0 0.0 0.00 0.26 0.26 68 1009.9
20260903000100 85 0 0.0 0.0 0.00 0.26 0.26 68 1009.8
20260902234554 85 0 0.0 0.0 0.00 0.26 0.26 66 1009.9
20260902233053 86 0 0.0 0.0 0.00 0.26 0.26 66 1009.9
20260902231551 86 0 0.0 1.0 0.00 0.26 0.26 65 1010.0
20260902230114 86 0 0.0 0.0 0.00 0.26 0.26 63 1009.9
20260902224558 86 0 0.0 0.0 0.00 0.26 0.26 63 1010.0
20260902223045 88 0 0.0 3.0 0.00 0.26 0.26 60 1010.0
20260902221559 87 0 0.0 1.0 0.00 0.26 0.26 62 1010.0
20260902214550 87 201 3.0 7.0 0.00 0.26 0.26 61 1010.1
20260902213049 88 0 1.0 5.0 0.00 0.26 0.26 59 1010.2
20260902211554 88 0 0.0 2.0 0.00 0.26 0.26 59 1010.2
20260902204552 86 0 0.0 5.0 0.00 0.26 0.26 60 1010.4
20260902203045 86 352 1.0 3.0 0.00 0.26 0.26 62 1010.5
20260902201542 85 0 0.0 0.0 0.00 0.26 0.26 64 1010.6
20260902200106 85 325 1.0 5.0 0.00 0.26 0.26 63 1010.6
20260902194559 86 355 0.0 2.0 0.00 0.26 0.26 62 1010.8
20260902193053 85 0 0.0 0.0 0.00 0.26 0.26 61 1010.9
20260902191559 85 0 0.0 4.0 0.00 0.26 0.26 63 1011.1
20260902190105 84 0 0.0 6.0 0.00 0.26 0.26 64 1011.2
20260902184623 83 165 2.0 5.0 0.00 0.26 0.26 65 1011.1
20260902183054 84 0 0.0 3.0 0.00 0.26 0.26 64 1011.3
20260902181608 83 119 0.0 3.0 0.00 0.26 0.26 65 1011.4
20260902180052 82 0 0.0 5.0 0.00 0.26 0.26 67 1011.5
20260902174545 81 227 1.0 8.0 0.00 0.26 0.26 69 1012.0
20260902173055 81 248 0.0 6.0 0.00 0.26 0.26 68 1012.2
20260902171614 80 292 0.0 3.0 0.00 0.26 0.26 69 1012.3
20260902170051 78 261 1.0 8.0 0.00 0.26 0.26 74 1012.4
20260902164547 78 227 2.0 7.0 0.00 0.26 0.26 74 1012.5
20260902163054 77 113 1.0 8.0 0.00 0.26 0.26 74 1012.4
20260902161552 76 0 3.0 9.0 0.00 0.26 0.26 75 1012.4
20260902160045 75 130 1.0 6.0 0.00 0.26 0.26 75 1012.1